Time,TemperatureF,DewpointF,PressureIn,WindDirection,WindDirectionDegrees,WindSpeedMPH,WindSpeedGustMPH,Humidity,HourlyPrecipIn,Conditions,Clouds,dailyrainin,SoftwareType,DateUTC
2013-02-19 00:07:00,25.6,17.0,30.11,South,179,0.0,-999.0,70,-99.99,,,0.00,weatherlink.com 1.10,2013-02-19 05:07:00,
2013-02-19 00:22:00,25.2,17.0,30.10,South,179,0.0,-999.0,71,-99.99,,,0.00,weatherlink.com 1.10,2013-02-19 05:22:00,
2013-02-19 00:37:00,25.0,17.0,30.09,South,179,0.0,-999.0,72,-99.99,,,0.00,weatherlink.com 1.10,2013-02-19 05:37:00,
2013-02-19 00:52:00,24.7,17.0,30.09,South,179,0.0,-999.0,73,-99.99,,,0.00,weatherlink.com 1.10,2013-02-19 05:52:00,
2013-02-19 01:07:00,24.5,17.0,30.09,South,179,0.0,-999.0,73,-99.99,,,0.00,weatherlink.com 1.10,2013-02-19 06:07:00,
2013-02-19 01:22:00,24.0,17.0,30.08,South,179,0.0,-999.0,75,-99.99,,,0.00,weatherlink.com 1.10,2013-02-19 06:22:00,
2013-02-19 01:38:00,23.8,17.0,30.07,South,179,0.0,-999.0,75,-99.99,,,0.00,weatherlink.com 1.10,2013-02-19 06:38:00,
2013-02-19 01:52:00,23.5,17.0,30.07,South,179,0.0,-999.0,76,-99.99,,,0.00,weatherlink.com 1.10,2013-02-19 06:52:00,
2013-02-19 02:07:00,23.2,17.0,30.07,South,179,0.0,-999.0,77,-99.99,,,0.00,weatherlink.com 1.10,2013-02-19 07:07:00,
2013-02-19 02:23:00,23.0,17.0,30.07,South,179,0.0,-999.0,77,-99.99,,,0.00,weatherlink.com 1.10,2013-02-19 07:23:00,
2013-02-19 02:38:00,22.7,17.0,30.06,South,179,0.0,-999.0,77,-99.99,,,0.00,weatherlink.com 1.10,2013-02-19 07:38:00,
2013-02-19 02:52:00,22.5,17.0,30.06,South,179,0.0,-999.0,78,-99.99,,,0.00,weatherlink.com 1.10,2013-02-19 07:52:00,
2013-02-19 03:07:00,22.6,17.0,30.06,South,179,0.0,-999.0,79,-99.99,,,0.00,weatherlink.com 1.10,2013-02-19 08:07:00,
2013-02-19 03:22:00,22.8,17.0,30.04,South,179,0.0,-999.0,79,-99.99,,,0.00,weatherlink.com 1.10,2013-02-19 08:22:00,
2013-02-19 03:38:00,22.7,17.0,30.04,South,179,0.0,-999.0,78,-99.99,,,0.00,weatherlink.com 1.10,2013-02-19 08:38:00,
2013-02-19 03:53:00,22.6,17.0,30.03,South,179,0.0,-999.0,79,-99.99,,,0.00,weatherlink.com 1.10,2013-02-19 08:53:00,
2013-02-19 04:08:00,22.4,17.0,30.01,South,179,0.0,-999.0,79,-99.99,,,0.00,weatherlink.com 1.10,2013-02-19 09:08:00,
2013-02-19 04:24:00,22.6,17.0,30.00,ENE,75,0.0,-999.0,80,-99.99,,,0.00,weatherlink.com 1.10,2013-02-19 09:24:00,
2013-02-19 04:38:00,23.4,18.0,29.99,East,90,0.0,-999.0,78,-99.99,,,0.00,weatherlink.com 1.10,2013-02-19 09:38:00,
2013-02-19 04:53:00,23.7,18.0,29.98,NNW,342,1.0,-999.0,77,-99.99,,,0.00,weatherlink.com 1.10,2013-02-19 09:53:00,
2013-02-19 05:08:00,23.9,18.0,29.97,ENE,61,0.0,-999.0,77,-99.99,,,0.00,weatherlink.com 1.10,2013-02-19 10:08:00,
2013-02-19 05:23:00,24.0,18.0,29.97,SE,134,0.0,-999.0,77,-99.99,,,0.00,weatherlink.com 1.10,2013-02-19 10:23:00,
2013-02-19 05:38:00,23.7,17.0,29.96,SE,130,0.0,-999.0,76,-99.99,,,0.00,weatherlink.com 1.10,2013-02-19 10:38:00,
2013-02-19 05:53:00,23.3,17.0,29.95,SE,124,0.0,-999.0,77,-99.99,,,0.00,weatherlink.com 1.10,2013-02-19 10:53:00,
2013-02-19 06:08:00,23.0,17.0,29.95,NE,49,0.0,-999.0,79,-99.99,,,0.00,weatherlink.com 1.10,2013-02-19 11:08:00,
2013-02-19 06:23:00,23.1,18.0,29.96,ENE,67,0.0,-999.0,80,-99.99,,,0.00,weatherlink.com 1.10,2013-02-19 11:23:00,
2013-02-19 06:38:00,23.1,18.0,29.95,ENE,67,0.0,-999.0,81,-99.99,,,0.00,weatherlink.com 1.10,2013-02-19 11:38:00,
2013-02-19 06:53:00,23.3,19.0,29.95,ENE,67,0.0,-999.0,82,-99.99,,,0.00,weatherlink.com 1.10,2013-02-19 11:53:00,
2013-02-19 07:08:00,24.1,20.0,29.95,West,262,0.0,-999.0,84,-99.99,,,0.00,weatherlink.com 1.10,2013-02-19 12:08:00,
2013-02-19 07:23:00,26.7,22.0,29.93,NNE,25,0.0,-999.0,83,-99.99,,,0.00,weatherlink.com 1.10,2013-02-19 12:23:00,
2013-02-19 07:38:00,29.3,24.0,29.92,ENE,59,1.0,-999.0,79,-99.99,,,0.00,weatherlink.com 1.10,2013-02-19 12:38:00,
2013-02-19 07:54:00,30.8,24.0,29.92,ENE,76,0.0,-999.0,76,-99.99,,,0.00,weatherlink.com 1.10,2013-02-19 12:54:00,
2013-02-19 08:08:00,31.9,24.0,29.90,NE,36,0.0,-999.0,73,-99.99,,,0.00,weatherlink.com 1.10,2013-02-19 13:08:00,
2013-02-19 08:23:00,33.6,24.0,29.90,South,171,2.0,-999.0,69,-99.99,,,0.00,weatherlink.com 1.10,2013-02-19 13:23:00,
2013-02-19 08:39:00,35.3,25.0,29.89,West,260,0.0,-999.0,66,-99.99,,,0.00,weatherlink.com 1.10,2013-02-19 13:39:00,
2013-02-19 08:53:00,36.4,25.0,29.88,South,188,0.0,-999.0,64,-99.99,,,0.00,weatherlink.com 1.10,2013-02-19 13:53:00,
2013-02-19 09:09:00,37.0,25.0,29.88,SSE,158,0.0,-999.0,63,-99.99,,,0.00,weatherlink.com 1.10,2013-02-19 14:09:00,
2013-02-19 09:23:00,37.1,25.0,29.88,SSE,167,4.0,-999.0,62,-99.99,,,0.00,weatherlink.com 1.10,2013-02-19 14:23:00,
2013-02-19 09:39:00,37.2,25.0,29.88,South,174,1.0,-999.0,62,-99.99,,,0.00,weatherlink.com 1.10,2013-02-19 14:39:00,
2013-02-19 09:54:00,36.9,27.0,29.90,SSW,208,2.0,-999.0,67,-99.99,,,0.00,weatherlink.com 1.10,2013-02-19 14:54:00,
2013-02-19 10:09:00,35.8,29.0,29.89,South,174,1.0,-999.0,76,-99.99,,,0.00,weatherlink.com 1.10,2013-02-19 15:09:00,
2013-02-19 10:24:00,34.7,29.0,29.88,South,169,0.0,-999.0,81,-99.99,,,0.00,weatherlink.com 1.10,2013-02-19 15:24:00,
2013-02-19 10:39:00,34.3,30.0,29.88,South,169,0.0,-999.0,83,-99.99,,,0.00,weatherlink.com 1.10,2013-02-19 15:39:00,
2013-02-19 10:54:00,33.8,30.0,29.86,SSE,162,0.0,-999.0,85,-99.99,,,0.00,weatherlink.com 1.10,2013-02-19 15:54:00,
2013-02-19 11:09:00,33.7,30.0,29.86,NNE,26,0.0,-999.0,86,-99.99,,,0.00,weatherlink.com 1.10,2013-02-19 16:09:00,
2013-02-19 11:25:00,33.8,30.0,29.85,NNE,26,0.0,-999.0,87,-99.99,,,0.00,weatherlink.com 1.10,2013-02-19 16:25:00,
2013-02-19 11:42:00,34.1,31.0,29.83,NNE,26,0.0,-999.0,89,-99.99,,,0.00,weatherlink.com 1.10,2013-02-19 16:42:00,
2013-02-19 12:10:00,34.8,32.0,29.82,ENE,63,2.0,-999.0,88,-99.99,,,0.00,weatherlink.com 1.10,2013-02-19 17:10:00,
2013-02-19 12:26:00,34.9,32.0,29.80,South,172,0.0,-999.0,88,-99.99,,,0.00,weatherlink.com 1.10,2013-02-19 17:26:00,
2013-02-19 12:40:00,35.3,32.0,29.79,SSW,194,1.0,-999.0,88,-99.99,,,0.00,weatherlink.com 1.10,2013-02-19 17:40:00,
2013-02-19 12:56:00,35.5,32.0,29.78,SSE,155,0.0,-999.0,87,-99.99,,,0.00,weatherlink.com 1.10,2013-02-19 17:56:00,
2013-02-19 13:11:00,35.7,32.0,29.77,South,182,0.0,-999.0,87,-99.99,,,0.00,weatherlink.com 1.10,2013-02-19 18:11:00,
2013-02-19 13:26:00,35.8,32.0,29.76,WSW,240,0.0,-999.0,87,-99.99,,,0.00,weatherlink.com 1.10,2013-02-19 18:26:00,
2013-02-19 13:41:00,35.9,32.0,29.75,SSW,196,0.0,-999.0,87,-99.99,,,0.00,weatherlink.com 1.10,2013-02-19 18:41:00,
2013-02-19 13:57:00,35.9,32.0,29.74,SSW,196,0.0,-999.0,87,-99.99,,,0.00,weatherlink.com 1.10,2013-02-19 18:57:00,
2013-02-19 14:12:00,35.8,33.0,29.73,ENE,68,0.0,-999.0,88,-99.99,,,0.00,weatherlink.com 1.10,2013-02-19 19:12:00,
2013-02-19 14:27:00,35.7,33.0,29.72,ENE,68,0.0,-999.0,88,-99.99,,,0.00,weatherlink.com 1.10,2013-02-19 19:27:00,
2013-02-19 14:41:00,35.9,33.0,29.71,ENE,68,0.0,-999.0,89,-99.99,,,0.00,weatherlink.com 1.10,2013-02-19 19:41:00,
2013-02-19 14:57:00,35.9,33.0,29.70,ENE,67,0.0,-999.0,89,-99.99,,,0.00,weatherlink.com 1.10,2013-02-19 19:57:00,
2013-02-19 15:13:00,36.2,33.0,29.69,ENE,67,0.0,-999.0,89,-99.99,,,0.00,weatherlink.com 1.10,2013-02-19 20:13:00,
2013-02-19 15:27:00,36.3,34.0,29.69,ENE,67,0.0,-999.0,90,-99.99,,,0.00,weatherlink.com 1.10,2013-02-19 20:27:00,
2013-02-19 15:43:00,36.4,34.0,29.69,ENE,67,0.0,-999.0,90,-99.99,,,0.00,weatherlink.com 1.10,2013-02-19 20:43:00,
2013-02-19 15:59:00,36.4,34.0,29.69,ENE,67,0.0,-999.0,89,-99.99,,,0.00,weatherlink.com 1.10,2013-02-19 20:59:00,
2013-02-19 16:12:00,36.4,34.0,29.68,ENE,67,0.0,-999.0,90,-99.99,,,0.01,weatherlink.com 1.10,2013-02-19 21:12:00,
2013-02-19 16:29:00,36.5,34.0,29.68,ENE,67,0.0,-999.0,90,-99.99,,,0.04,weatherlink.com 1.10,2013-02-19 21:29:00,
2013-02-19 16:44:00,36.4,34.0,29.69,ENE,67,0.0,-999.0,90,-99.99,,,0.06,weatherlink.com 1.10,2013-02-19 21:44:00,
2013-02-19 16:59:00,36.2,34.0,29.70,ENE,67,0.0,-999.0,90,-99.99,,,0.08,weatherlink.com 1.10,2013-02-19 21:59:00,
2013-02-19 17:13:00,35.9,33.0,29.70,ENE,67,0.0,-999.0,90,-99.99,,,0.12,weatherlink.com 1.10,2013-02-19 22:13:00,
2013-02-19 17:29:00,35.6,33.0,29.71,SW,221,3.0,-999.0,90,-99.99,,,0.15,weatherlink.com 1.10,2013-02-19 22:29:00,
2013-02-19 17:43:00,35.5,33.0,29.72,West,280,1.0,-999.0,91,-99.99,,,0.16,weatherlink.com 1.10,2013-02-19 22:43:00,
2013-02-19 17:58:00,35.2,33.0,29.73,WNW,298,2.0,-999.0,91,-99.99,,,0.17,weatherlink.com 1.10,2013-02-19 22:58:00,
2013-02-19 18:14:00,35.0,33.0,29.73,West,261,0.0,-999.0,91,-99.99,,,0.17,weatherlink.com 1.10,2013-02-19 23:14:00,
2013-02-19 18:28:00,34.7,32.0,29.74,West,261,0.0,-999.0,91,-99.99,,,0.18,weatherlink.com 1.10,2013-02-19 23:28:00,
2013-02-19 18:43:00,34.4,32.0,29.75,West,262,0.0,-999.0,91,-99.99,,,0.18,weatherlink.com 1.10,2013-02-19 23:43:00,
2013-02-19 18:59:00,34.1,32.0,29.76,West,261,0.0,-999.0,91,-99.99,,,0.18,weatherlink.com 1.10,2013-02-19 23:59:00,
2013-02-19 19:14:00,34.1,32.0,29.76,West,259,0.0,-999.0,91,-99.99,,,0.18,weatherlink.com 1.10,2013-02-20 00:14:00,
2013-02-19 19:28:00,34.2,32.0,29.76,WSW,244,5.0,-999.0,92,-99.99,,,0.18,weatherlink.com 1.10,2013-02-20 00:28:00,
2013-02-19 19:43:00,34.0,32.0,29.77,NW,305,1.0,-999.0,91,-99.99,,,0.18,weatherlink.com 1.10,2013-02-20 00:43:00,
2013-02-19 19:59:00,34.4,31.0,29.77,SW,221,0.0,-999.0,87,-99.99,,,0.18,weatherlink.com 1.10,2013-02-20 00:59:00,
2013-02-19 20:13:00,34.4,30.0,29.78,WSW,249,0.0,-999.0,85,-99.99,,,0.18,weatherlink.com 1.10,2013-02-20 01:13:00,
2013-02-19 20:28:00,34.7,29.0,29.78,WSW,239,3.0,-999.0,80,-99.99,,,0.18,weatherlink.com 1.10,2013-02-20 01:28:00,
2013-02-19 20:44:00,35.0,28.0,29.78,SW,219,8.0,-999.0,77,-99.99,,,0.18,weatherlink.com 1.10,2013-02-20 01:44:00,
2013-02-19 20:58:00,35.0,28.0,29.79,SW,227,2.0,-999.0,74,-99.99,,,0.18,weatherlink.com 1.10,2013-02-20 01:58:00,
2013-02-19 21:13:00,34.5,26.0,29.79,WSW,254,7.0,-999.0,71,-99.99,,,0.18,weatherlink.com 1.10,2013-02-20 02:13:00,
2013-02-19 21:28:00,34.2,26.0,29.80,SSW,209,3.0,-999.0,71,-99.99,,,0.18,weatherlink.com 1.10,2013-02-20 02:28:00,
2013-02-19 21:43:00,33.7,26.0,29.79,WSW,244,2.0,-999.0,73,-99.99,,,0.18,weatherlink.com 1.10,2013-02-20 02:43:00,
2013-02-19 21:59:00,33.5,25.0,29.79,SSW,200,5.0,-999.0,71,-99.99,,,0.18,weatherlink.com 1.10,2013-02-20 02:59:00,
2013-02-19 22:14:00,33.3,25.0,29.79,West,261,4.0,-999.0,72,-99.99,,,0.18,weatherlink.com 1.10,2013-02-20 03:14:00,
2013-02-19 22:30:00,33.2,25.0,29.80,SSW,202,9.0,-999.0,72,-99.99,,,0.18,weatherlink.com 1.10,2013-02-20 03:30:00,
2013-02-19 22:44:00,32.3,25.0,29.80,SW,223,5.0,-999.0,74,-99.99,,,0.18,weatherlink.com 1.10,2013-02-20 03:44:00,
2013-02-19 23:00:00,31.5,24.0,29.80,South,176,5.0,-999.0,74,-99.99,,,0.18,weatherlink.com 1.10,2013-02-20 04:00:00,
2013-02-19 23:15:00,31.2,24.0,29.81,SW,229,4.0,-999.0,74,-99.99,,,0.18,weatherlink.com 1.10,2013-02-20 04:15:00,
2013-02-19 23:30:00,31.1,23.0,29.82,SSW,207,7.0,-999.0,71,-99.99,,,0.19,weatherlink.com 1.10,2013-02-20 04:30:00,
2013-02-19 23:45:00,30.5,22.0,29.82,West,263,7.0,-999.0,70,-99.99,,,0.19,weatherlink.com 1.10,2013-02-20 04:45:00,